Terminal Aerodrome Forecast
Issued by NWS

Home | Current Version | Previous Version | Text Only | Print | Product List | Glossary On
Versions: 1 2 3 4 5 6 7 8 9 10 11 12 13 14 15 16
000
FTUS41 KPHI 281130
TAFPNE
TAF
KPNE 281130Z 2812/2912 20004KT P6SM SCT030
      TEMPO 2812/2813 BKN010
     FM281600 23006KT P6SM SCT035
     FM282300 19006KT P6SM SCT040
     FM290200 21002KT P6SM FEW035 SCT250=

USA.gov is the U.S. government's official web portal to all federal, state and local government web resources and services.